Waarnemingen

Advertentie
Mijn weer
Karesuando, Zweden (2080): temperatuur & dauwpunt: 14.01.2021 23:00:00 - 20.01.2021 23:00:00 (CET)Karesuando, Zweden (2080): windsnelheid & windstoten: 14.01.2021 23:00:00 - 20.01.2021 23:00:00 (CET)Karesuando, Zweden (2080): windrichting: 14.01.2021 23:00:00 - 20.01.2021 23:00:00 (CET)Karesuando, Zweden (2080): luchtdruk: 14.01.2021 23:00:00 - 20.01.2021 23:00:00 (CET)Karesuando, Zweden (2080): zicht: 14.01.2021 23:00:00 - 20.01.2021 23:00:00 (CET)Karesuando, Zweden (2080): neerslag: 14.01.2021 23:00:00 - 20.01.2021 23:00:00 (CET)
Datum & Tijd tt [°C] td [°C] ff [km/u] ff [kn] fx [km/u] fx [kn] dd ppp [hPa] vv [km] rr [mm]
20.01.2021 23:00:00 -20,6 -23,0 0 0 9 5 N 1016,6 3,2 0,0
20.01.2021 22:00:00 -18,1 -20,1 4 2 10 5 ONO 1016,4 7 0,0
20.01.2021 21:00:00 -19,3 -21,5 5 3 9 5 O 1016,4 10 0,0
20.01.2021 20:00:00 -19,7 -21,8 5 3 7 4 ONO 1016,5 23 0,0
20.01.2021 19:00:00 -20,1 -22,4 0 0 7 4 N 1016,5 50 0,0
20.01.2021 18:00:00 -19,0 -21,2 2 1 7 4 NW 1016,3 44 0,0
20.01.2021 17:00:00 -18,5 -20,5 4 2 - - N 1016,3 25 0,0
20.01.2021 16:00:00 -18,4 -20,6 3 2 5 3 ONO 1016,2 9 0,0
20.01.2021 15:00:00 -18,1 -20,1 3 1 6 3 N 1016,2 13 0,0
20.01.2021 14:00:00 -18,0 -20,0 3 2 4 2 N 1016,4 48 0,0
20.01.2021 13:00:00 -17,6 -19,6 0 0 4 2 N 1016,4 50 0,0
20.01.2021 12:00:00 -17,6 -19,6 3 2 5 3 NW 1016,3 45 0,0
20.01.2021 11:00:00 -17,6 -19,6 4 2 6 3 N 1016,3 50 0,0
20.01.2021 10:00:00 -17,5 -19,4 3 1 5 3 WZW 1016,3 24 0,0
20.01.2021 09:00:00 -17,0 -18,9 4 2 6 3 NO 1016,2 37 0,0
20.01.2021 08:00:00 -17,1 -19,2 2 1 5 3 NNW 1016,0 34 0,0
20.01.2021 07:00:00 -17,1 -19,0 2 1 5 3 N 1016,0 - 0,0
20.01.2021 06:00:00 -17,1 -18,9 3 2 6 3 NNW 1016,1 1,6 0,0
20.01.2021 05:00:00 -17,5 -19,3 3 2 5 3 NNW 1015,9 - 0,0
20.01.2021 04:00:00 -17,8 -19,6 3 2 5 3 NW 1015,9 0,7 0,0
20.01.2021 03:00:00 -17,9 -19,5 3 2 6 3 NW 1015,8 1,6 0,0
20.01.2021 02:00:00 -16,8 -18,6 3 1 9 5 O 1015,6 4,7 0,0
20.01.2021 01:00:00 -18,5 -20,3 6 3 9 5 ONO 1015,4 2,5 0,0
20.01.2021 00:00:00 -18,6 -20,6 3 1 7 4 WNW 1015,4 13 0,0
19.01.2021 23:00:00 -16,2 -18,1 6 3 13 7 O 1015,1 13 0,0
19.01.2021 22:00:00 -14,4 -15,9 8 4 11 6 O 1014,7 37 0,0
19.01.2021 21:00:00 -14,1 -15,8 5 3 9 5 O 1014,3 24 0,0
19.01.2021 20:00:00 -12,3 -13,6 4 2 7 4 O 1013,9 23 0,0
19.01.2021 19:00:00 -14,5 -16,3 4 2 6 3 NO 1013,8 42 0,0
19.01.2021 18:00:00 -15,0 -16,8 0 0 3 2 N 1013,4 10 0,1
19.01.2021 17:00:00 -15,4 -17,2 0 0 4 2 N 1013,2 8 0,0
19.01.2021 16:00:00 -16,3 -18,1 3 1 4 2 ZW 1013,0 6 0,0
19.01.2021 15:00:00 -17,5 -19,5 2 1 5 3 N 1012,9 14 0,0
19.01.2021 14:00:00 -18,6 -20,8 0 0 5 3 N 1012,8 40 0,0
19.01.2021 13:00:00 -20,5 -22,8 3 1 4 2 NW 1012,7 46 0,0
19.01.2021 12:00:00 -23,1 -25,4 2 1 6 4 WZW 1012,9 49 0,0
19.01.2021 11:00:00 -25,1 -28,0 4 2 6 3 WNW 1012,9 50 0,0
19.01.2021 10:00:00 -24,3 -26,6 5 3 8 4 NW 1012,4 2,9 0,0
19.01.2021 09:00:00 -25,9 -28,9 4 2 6 4 NW 1012,3 50 0,0
19.01.2021 08:00:00 -26,0 -28,8 3 1 8 4 WNW 1011,9 50 0,0
19.01.2021 07:00:00 -25,1 -27,5 5 3 8 5 ZW 1011,4 50 0,0
19.01.2021 06:00:00 -25,3 -27,9 3 2 6 3 ZW 1011,1 50 0,0
19.01.2021 05:00:00 -25,7 -28,4 4 2 7 4 WZW 1010,9 50 0,0
19.01.2021 04:00:00 -25,9 -28,7 3 2 8 4 WNW 1010,6 50 0,0
19.01.2021 03:00:00 -25,1 -27,8 4 2 7 4 NW 1010,2 43 0,0
19.01.2021 02:00:00 -24,9 -27,6 5 3 8 4 WNW 1010,0 50 0,0
19.01.2021 01:00:00 -24,5 -27,0 5 3 7 4 NW 1009,6 50 0,0
19.01.2021 00:00:00 -24,7 -27,4 4 2 8 4 NW 1009,6 50 0,0
18.01.2021 23:00:00 -23,9 -26,5 5 3 10 5 NW 1009,4 50 0,0
18.01.2021 22:00:00 -24,7 -27,6 5 3 8 4 WZW 1009,3 50 0,0
18.01.2021 21:00:00 -23,1 -25,0 6 3 9 5 WZW 1008,8 3,0 0,0
18.01.2021 20:00:00 -23,3 -25,8 5 3 7 4 N 1008,3 42 0,0
18.01.2021 19:00:00 -23,5 -25,8 2 1 6 3 WNW 1008,0 40 0,0
18.01.2021 18:00:00 -25,6 -28,4 2 1 5 3 ONO 1008,2 50 0,0
18.01.2021 17:00:00 -25,4 -28,2 4 2 6 3 O 1008,1 36 0,0
18.01.2021 16:00:00 -24,7 -27,6 0 0 8 5 N 1007,7 28 0,0
18.01.2021 15:00:00 -22,4 -24,6 6 4 11 6 O 1007,3 50 0,0
18.01.2021 14:00:00 -24,0 -26,7 3 2 9 5 O 1007,6 29 0,0
18.01.2021 13:00:00 -23,6 -26,4 3 2 7 4 O 1007,7 47 0,0
18.01.2021 12:00:00 -22,9 -25,4 5 3 8 4 O 1007,7 50 0,0
18.01.2021 11:00:00 -22,3 -24,7 5 3 10 5 O 1007,8 50 0,0
18.01.2021 10:00:00 -22,6 -25,0 4 2 8 4 N 1007,9 50 0,0
18.01.2021 09:00:00 -23,1 -25,7 5 3 8 4 NW 1007,9 50 0,0
18.01.2021 08:00:00 -22,7 -25,2 6 3 8 4 NW 1007,8 50 0,0
18.01.2021 07:00:00 -22,6 -25,1 4 2 6 3 WNW 1007,7 50 0,0
18.01.2021 06:00:00 -22,5 -25,0 5 3 6 4 NNW 1007,9 50 0,0
18.01.2021 05:00:00 -22,2 -24,6 5 3 6 3 NNW 1008,2 50 0,0
18.01.2021 04:00:00 -22,2 -24,7 3 1 6 4 W 1008,3 50 0,0
18.01.2021 03:00:00 -21,7 -24,4 4 2 6 4 NW 1008,5 50 0,0
18.01.2021 02:00:00 -21,1 -23,5 6 3 7 4 N 1008,8 50 0,0
18.01.2021 01:00:00 -20,8 -23,1 5 3 8 4 WNW 1009,1 50 0,0
18.01.2021 00:00:00 -20,9 -23,4 6 3 7 4 NW 1009,6 50 0,0
17.01.2021 23:00:00 -19,9 -22,0 6 3 9 5 NNW 1009,8 50 0,0
17.01.2021 22:00:00 -18,8 -20,8 5 3 8 5 NW 1010,0 50 0,0
17.01.2021 21:00:00 -19,1 -21,3 5 3 6 4 NNW 1010,3 50 0,0
17.01.2021 20:00:00 -18,7 -20,9 5 3 7 4 NW 1010,6 50 0,0
17.01.2021 19:00:00 -18,5 -20,5 5 3 7 4 NW 1010,8 50 0,0
17.01.2021 18:00:00 -18,8 -21,0 6 3 7 4 NW 1011,0 50 0,0
17.01.2021 17:00:00 -18,8 -21,0 6 3 - - NW 1011,3 45 0,0
17.01.2021 16:00:00 -17,8 -19,7 5 3 - - NNW 1011,4 50 0,0
17.01.2021 15:00:00 -17,5 -19,5 5 3 8 4 NW 1011,4 50 0,0
17.01.2021 14:00:00 -16,1 -18,0 5 3 9 5 NW 1011,7 45 0,0
17.01.2021 13:00:00 -15,6 -17,4 6 3 9 5 NNW 1012,1 50 0,0
17.01.2021 12:00:00 -15,4 -17,2 4 2 7 4 W 1012,3 50 0,0
17.01.2021 11:00:00 -16,2 -18,6 5 3 9 5 WNW 1012,5 50 0,0
17.01.2021 10:00:00 -14,2 -15,7 5 3 9 5 NW 1012,7 50 0,0
17.01.2021 09:00:00 -14,1 -15,9 3 2 - - W 1012,6 50 0,0
17.01.2021 08:00:00 -13,2 -14,8 5 3 7 4 NNW 1012,5 50 0,0
17.01.2021 07:00:00 -12,5 -13,8 5 3 7 4 N 1012,6 50 0,0
17.01.2021 06:00:00 -13,4 -14,8 5 3 7 4 N 1012,8 50 0,0
17.01.2021 05:00:00 -14,2 -15,7 5 3 7 4 NW 1013,3 50 0,0
17.01.2021 04:00:00 -15,0 -16,7 4 2 7 4 W 1013,7 50 0,0
17.01.2021 03:00:00 -12,9 -14,1 5 3 9 5 W 1013,8 50 0,0
17.01.2021 02:00:00 -14,1 -15,5 4 2 12 7 WNW 1014,2 50 0,0
17.01.2021 01:00:00 -14,6 -16,1 6 4 10 5 W 1014,7 50 0,0
17.01.2021 00:00:00 -12,0 -13,6 4 2 12 7 W 1014,9 50 0,0
16.01.2021 23:00:00 -8,8 -10,3 9 5 12 7 ZW 1015,1 50 0,0
16.01.2021 22:00:00 -7,6 -8,7 8 5 11 6 ZZW 1015,2 50 0,0
16.01.2021 21:00:00 -9,6 -10,7 7 4 13 7 ZW 1015,5 50 0,0
16.01.2021 20:00:00 -7,9 -9,1 11 6 15 8 ZZW 1015,6 50 0,0
16.01.2021 19:00:00 -7,4 -8,3 8 4 11 6 ZW 1016,0 50 0,0
16.01.2021 18:00:00 -6,4 -7,8 6 3 - - Z 1016,1 50 0,0
16.01.2021 17:00:00 -6,5 -7,9 7 4 12 7 ZZW 1016,4 50 0,0
16.01.2021 16:00:00 -5,9 -7,1 8 4 12 7 ZZW 1016,7 50 0,0
16.01.2021 15:00:00 -6,7 -7,6 8 4 12 7 ZW 1017,3 50 0,0
16.01.2021 14:00:00 -8,3 -9,2 7 4 11 6 ZZW 1017,9 50 0,0
16.01.2021 13:00:00 -8,7 -9,9 8 5 15 8 ZZW 1018,4 50 0,0
16.01.2021 12:00:00 -8,6 -9,7 10 5 14 8 ZW 1018,8 42 0,0
16.01.2021 11:00:00 -8,7 -9,6 7 4 - - ZZW 1019,1 50 0,0
16.01.2021 10:00:00 -9,4 -10,6 7 4 13 7 Z 1019,3 50 0,0
16.01.2021 09:00:00 -9,2 -10,1 9 5 14 7 ZZW 1019,3 50 0,0
16.01.2021 08:00:00 -9,0 -10,3 7 4 - - ZZW 1019,3 50 0,0
16.01.2021 07:00:00 -7,8 -8,9 10 5 15 8 ZZW 1019,4 50 0,0
16.01.2021 06:00:00 -8,0 -8,9 11 6 14 8 ZW 1019,4 50 0,0
16.01.2021 05:00:00 -7,7 -8,8 6 3 16 8 ZZW 1019,6 50 0,0
16.01.2021 04:00:00 -5,2 -6,4 10 5 13 7 WZW 1019,6 50 0,0
16.01.2021 03:00:00 -7,0 -8,4 6 3 14 8 ZZW 1019,8 50 0,0
16.01.2021 02:00:00 -7,1 -8,0 7 4 15 8 ZZW 1019,9 50 0,0
16.01.2021 01:00:00 -6,6 -7,3 7 4 11 6 ZZO 1020,0 50 0,0
16.01.2021 00:00:00 -6,4 -7,5 9 5 14 8 W 1020,0 50 0,0
15.01.2021 23:00:00 -5,3 -6,5 10 6 14 8 WNW 1019,8 50 0,0
15.01.2021 22:00:00 -4,8 -6,2 5 3 16 9 W 1019,8 50 0,0
15.01.2021 21:00:00 -2,7 -4,7 11 6 34 18 W 1019,2 50 0,0
15.01.2021 20:00:00 -3,6 -5,6 10 5 23 13 ZW 1018,9 50 0,0
15.01.2021 19:00:00 -2,6 -4,6 9 5 22 12 W 1018,9 50 0,0
15.01.2021 18:00:00 -2,4 -4,3 16 8 24 13 WZW 1018,6 50 0,0
15.01.2021 17:00:00 -3,8 -5,3 9 5 14 8 W 1018,7 50 0,0
15.01.2021 16:00:00 -4,0 -5,4 5 3 14 8 WNW 1018,4 50 0,0
15.01.2021 15:00:00 -4,4 -5,2 11 6 18 10 W 1018,4 50 0,0
15.01.2021 14:00:00 -7,6 -8,5 5 3 12 7 WNW 1018,6 50 0,0
15.01.2021 13:00:00 -8,1 -9,2 3 2 14 8 ZW 1018,6 50 0,0
15.01.2021 12:00:00 -6,1 -7,0 7 4 14 7 ZW 1018,4 50 0,0
15.01.2021 11:00:00 -8,5 -9,6 9 5 14 8 WZW 1018,8 50 0,0
15.01.2021 10:00:00 -10,5 -11,7 6 3 11 6 ZZW 1019,1 48 0,0
15.01.2021 09:00:00 -10,7 -12,0 5 3 14 8 WNW 1019,2 50 0,0
15.01.2021 08:00:00 -12,3 -14,2 4 2 8 4 ZW 1019,1 50 0,0
15.01.2021 07:00:00 -11,1 -12,1 4 2 5 3 NNW 1019,2 50 0,0
15.01.2021 06:00:00 -10,9 -11,8 0 0 6 3 N 1019,3 50 0,0
15.01.2021 05:00:00 -12,0 -13,6 0 0 6 4 N 1019,5 50 0,0
15.01.2021 04:00:00 -12,8 -14,8 3 1 4 2 NNW 1019,6 50 0,0
15.01.2021 03:00:00 -12,6 -14,3 0 0 6 3 N 1019,8 50 0,0
15.01.2021 02:00:00 -13,5 -15,5 5 3 6 4 NW 1020,2 50 0,0
15.01.2021 01:00:00 -14,1 -15,8 3 2 6 3 W 1020,9 50 0,0
15.01.2021 00:00:00 -16,1 -18,2 5 3 7 4 NNW 1021,4 50 0,0
14.01.2021 23:00:00 -16,7 -18,9 4 2 8 5 NW 1021,8 49 0,0

tt = temperatuur
td = dauwpunt
ff = windsnelheid
fx = windstoten
dd = windrichting
ppp = luchtdruk
vv = zicht
rr = neerslag

Weerstations in de omgeving